owner,sensor,date,latitude,longitude,sea_surface_height_above_sea_level,qcFlag 
WAVCIS,ioos:station:WAVCIS:CSI16:1,2010-05-01T00:00:00Z,29.4012,-89.0355,9.025,11111222 
WAVCIS,ioos:station:WAVCIS:CSI16:1,2010-05-01T01:00:00Z,29.4012,-89.0355,9.025,11111222 
WAVCIS,ioos:station:WAVCIS:CSI16:1,2010-05-01T02:00:00Z,29.4012,-89.0355,9.035,11111222 
WAVCIS,ioos:station:WAVCIS:CSI16:1,2010-05-01T03:00:00Z,29.4012,-89.0355,9.054,11111222 
WAVCIS,ioos:station:WAVCIS:CSI16:1,2010-05-01T04:00:00Z,29.4012,-89.0355,9.08,11111222 
WAVCIS,ioos:station:WAVCIS:CSI16:1,2010-05-01T05:00:00Z,29.4012,-89.0355,9.127,11111222 
WAVCIS,ioos:station:WAVCIS:CSI16:1,2010-05-01T06:00:00Z,29.4012,-89.0355,9.179,11111222 
WAVCIS,ioos:station:WAVCIS:CSI16:1,2010-05-01T07:00:00Z,29.4012,-89.0355,9.25,11111222 
WAVCIS,ioos:station:WAVCIS:CSI16:1,2010-05-01T08:00:00Z,29.4012,-89.0355,9.323,11111222 
WAVCIS,ioos:station:WAVCIS:CSI16:1,2010-05-01T09:00:00Z,29.4012,-89.0355,9.402,11111222 
WAVCIS,ioos:station:WAVCIS:CSI16:1,2010-05-01T10:00:00Z,29.4012,-89.0355,9.467,11111222 
WAVCIS,ioos:station:WAVCIS:CSI16:1,2010-05-01T11:00:00Z,29.4012,-89.0355,9.53,11111222 
WAVCIS,ioos:station:WAVCIS:CSI16:1,2010-05-01T12:00:00Z,29.4012,-89.0355,9.618,11111222 
WAVCIS,ioos:station:WAVCIS:CSI16:1,2010-05-01T13:00:00Z,29.4012,-89.0355,9.688,11111222 
WAVCIS,ioos:station:WAVCIS:CSI16:1,2010-05-01T14:00:00Z,29.4012,-89.0355,9.733,11111222 
WAVCIS,ioos:station:WAVCIS:CSI16:1,2010-05-01T15:00:00Z,29.4012,-89.0355,9.746,11111222 
WAVCIS,ioos:station:WAVCIS:CSI16:1,2010-05-01T16:00:00Z,29.4012,-89.0355,9.738,11111222 
WAVCIS,ioos:station:WAVCIS:CSI16:1,2010-05-01T17:00:00Z,29.4012,-89.0355,9.718,11111222 
WAVCIS,ioos:station:WAVCIS:CSI16:1,2010-05-01T18:00:00Z,29.4012,-89.0355,9.686,11111222 
WAVCIS,ioos:station:WAVCIS:CSI16:1,2010-05-01T19:00:00Z,29.4012,-89.0355,9.629,11111222 
WAVCIS,ioos:station:WAVCIS:CSI16:1,2010-05-01T20:00:00Z,29.4012,-89.0355,9.532,11111222 
WAVCIS,ioos:station:WAVCIS:CSI16:1,2010-05-01T21:00:00Z,29.4012,-89.0355,9.433,11111222 
WAVCIS,ioos:station:WAVCIS:CSI16:1,2010-05-01T22:00:00Z,29.4012,-89.0355,9.34,11111222 
WAVCIS,ioos:station:WAVCIS:CSI16:1,2010-05-01T23:00:00Z,29.4012,-89.0355,9.258,11111222 
WAVCIS,ioos:station:WAVCIS:CSI16:1,2010-05-02T00:00:00Z,29.4012,-89.0355,9.202,11111222 
WAVCIS,ioos:station:WAVCIS:CSI16:1,2010-05-02T01:00:00Z,29.4012,-89.0355,9.171,11111222 
WAVCIS,ioos:station:WAVCIS:CSI16:1,2010-05-02T02:00:00Z,29.4012,-89.0355,9.148,11111222 
WAVCIS,ioos:station:WAVCIS:CSI16:1,2010-05-02T03:00:00Z,29.4012,-89.0355,9.145,11111222 
WAVCIS,ioos:station:WAVCIS:CSI16:1,2010-05-02T04:00:00Z,29.4012,-89.0355,9.153,11111222 
WAVCIS,ioos:station:WAVCIS:CSI16:1,2010-05-02T05:00:00Z,29.4012,-89.0355,9.168,11111222 
WAVCIS,ioos:station:WAVCIS:CSI16:1,2010-05-02T06:00:00Z,29.4012,-89.0355,9.217,11111222 
WAVCIS,ioos:station:WAVCIS:CSI16:1,2010-05-02T07:00:00Z,29.4012,-89.0355,9.262,11111222 
WAVCIS,ioos:station:WAVCIS:CSI16:1,2010-05-02T08:00:00Z,29.4012,-89.0355,9.337,11111222 
WAVCIS,ioos:station:WAVCIS:CSI16:1,2010-05-02T09:00:00Z,29.4012,-89.0355,9.391,11111222 
WAVCIS,ioos:station:WAVCIS:CSI16:1,2010-05-02T10:00:00Z,29.4012,-89.0355,9.456,11111222 
WAVCIS,ioos:station:WAVCIS:CSI16:1,2010-05-02T11:00:00Z,29.4012,-89.0355,9.518,11111222 
WAVCIS,ioos:station:WAVCIS:CSI16:1,2010-05-02T12:00:00Z,29.4012,-89.0355,9.579,11111222 
WAVCIS,ioos:station:WAVCIS:CSI16:1,2010-05-02T13:00:00Z,29.4012,-89.0355,9.66,11111222 
WAVCIS,ioos:station:WAVCIS:CSI16:1,2010-05-02T14:00:00Z,29.4012,-89.0355,9.713,11111222 
WAVCIS,ioos:station:WAVCIS:CSI16:1,2010-05-02T15:00:00Z,29.4012,-89.0355,9.745,11111222 
WAVCIS,ioos:station:WAVCIS:CSI16:1,2010-05-02T16:00:00Z,29.4012,-89.0355,9.75,11111222 
WAVCIS,ioos:station:WAVCIS:CSI16:1,2010-05-02T17:00:00Z,29.4012,-89.0355,9.746,11111222 
WAVCIS,ioos:station:WAVCIS:CSI16:1,2010-05-02T18:00:00Z,29.4012,-89.0355,9.737,11111222 
WAVCIS,ioos:station:WAVCIS:CSI16:1,2010-05-02T19:00:00Z,29.4012,-89.0355,9.685,11111222 
WAVCIS,ioos:station:WAVCIS:CSI16:1,2010-05-02T20:00:00Z,29.4012,-89.0355,9.614,11111222 
WAVCIS,ioos:station:WAVCIS:CSI16:1,2010-05-02T21:00:00Z,29.4012,-89.0355,9.538,11111222 
WAVCIS,ioos:station:WAVCIS:CSI16:1,2010-05-02T22:00:00Z,29.4012,-89.0355,9.459,11111222 
WAVCIS,ioos:station:WAVCIS:CSI16:1,2010-05-02T23:00:00Z,29.4012,-89.0355,9.382,11111222 
WAVCIS,ioos:station:WAVCIS:CSI16:1,2010-05-03T00:00:00Z,29.4012,-89.0355,9.311,11111222 
WAVCIS,ioos:station:WAVCIS:CSI16:1,2010-05-03T01:00:00Z,29.4012,-89.0355,9.279,11111222 
WAVCIS,ioos:station:WAVCIS:CSI16:1,2010-05-03T02:00:00Z,29.4012,-89.0355,9.252,11111222 
WAVCIS,ioos:station:WAVCIS:CSI16:1,2010-05-03T03:00:00Z,29.4012,-89.0355,9.211,11111222 
WAVCIS,ioos:station:WAVCIS:CSI16:1,2010-05-03T04:00:00Z,29.4012,-89.0355,9.203,11111222 
WAVCIS,ioos:station:WAVCIS:CSI16:1,2010-05-03T05:00:00Z,29.4012,-89.0355,9.215,11111222 
WAVCIS,ioos:station:WAVCIS:CSI16:1,2010-05-03T06:00:00Z,29.4012,-89.0355,9.213,11111222 
WAVCIS,ioos:station:WAVCIS:CSI16:1,2010-05-03T07:00:00Z,29.4012,-89.0355,9.262,11111222 
WAVCIS,ioos:station:WAVCIS:CSI16:1,2010-05-03T08:00:00Z,29.4012,-89.0355,9.312,11111222 
WAVCIS,ioos:station:WAVCIS:CSI16:1,2010-05-03T09:00:00Z,29.4012,-89.0355,9.362,11111222 
WAVCIS,ioos:station:WAVCIS:CSI16:1,2010-05-03T10:00:00Z,29.4012,-89.0355,9.409,11111222 
WAVCIS,ioos:station:WAVCIS:CSI16:1,2010-05-03T11:00:00Z,29.4012,-89.0355,9.464,11111222 
WAVCIS,ioos:station:WAVCIS:CSI16:1,2010-05-03T12:00:00Z,29.4012,-89.0355,9.536,11111222 
WAVCIS,ioos:station:WAVCIS:CSI16:1,2010-05-03T13:00:00Z,29.4012,-89.0355,9.593,11111222 
WAVCIS,ioos:station:WAVCIS:CSI16:1,2010-05-03T14:00:00Z,29.4012,-89.0355,9.641,11111222 
WAVCIS,ioos:station:WAVCIS:CSI16:1,2010-05-03T15:00:00Z,29.4012,-89.0355,9.681,11111222 
WAVCIS,ioos:station:WAVCIS:CSI16:1,2010-05-03T16:00:00Z,29.4012,-89.0355,9.726,11111222 
WAVCIS,ioos:station:WAVCIS:CSI16:1,2010-05-03T17:00:00Z,29.4012,-89.0355,9.713,11111222 
WAVCIS,ioos:station:WAVCIS:CSI16:1,2010-05-03T18:00:00Z,29.4012,-89.0355,9.7,11111222 
WAVCIS,ioos:station:WAVCIS:CSI16:1,2010-05-03T19:00:00Z,29.4012,-89.0355,9.677,11111222 
WAVCIS,ioos:station:WAVCIS:CSI16:1,2010-05-03T20:00:00Z,29.4012,-89.0355,9.639,11111222 
WAVCIS,ioos:station:WAVCIS:CSI16:1,2010-05-03T21:00:00Z,29.4012,-89.0355,9.591,11111222 
WAVCIS,ioos:station:WAVCIS:CSI16:1,2010-05-03T22:00:00Z,29.4012,-89.0355,9.541,11111222 
WAVCIS,ioos:station:WAVCIS:CSI16:1,2010-05-03T23:00:00Z,29.4012,-89.0355,9.469,11111222 
WAVCIS,ioos:station:WAVCIS:CSI16:1,2010-05-04T00:00:00Z,29.4012,-89.0355,9.406,11111222 
WAVCIS,ioos:station:WAVCIS:CSI16:1,2010-05-04T01:00:00Z,29.4012,-89.0355,9.37,11111222 
WAVCIS,ioos:station:WAVCIS:CSI16:1,2010-05-04T02:00:00Z,29.4012,-89.0355,9.327,11111222 
WAVCIS,ioos:station:WAVCIS:CSI16:1,2010-05-04T03:00:00Z,29.4012,-89.0355,9.312,11111222 
WAVCIS,ioos:station:WAVCIS:CSI16:1,2010-05-04T04:00:00Z,29.4012,-89.0355,9.286,11111222 
WAVCIS,ioos:station:WAVCIS:CSI16:1,2010-05-04T05:00:00Z,29.4012,-89.0355,9.275,11111222 
WAVCIS,ioos:station:WAVCIS:CSI16:1,2010-05-04T06:00:00Z,29.4012,-89.0355,9.265,11111222 
WAVCIS,ioos:station:WAVCIS:CSI16:1,2010-05-04T07:00:00Z,29.4012,-89.0355,9.27,11111222 
WAVCIS,ioos:station:WAVCIS:CSI16:1,2010-05-04T08:00:00Z,29.4012,-89.0355,9.279,11111222 
WAVCIS,ioos:station:WAVCIS:CSI16:1,2010-05-04T09:00:00Z,29.4012,-89.0355,9.309,11111222 
WAVCIS,ioos:station:WAVCIS:CSI16:1,2010-05-04T10:00:00Z,29.4012,-89.0355,9.352,11111222 
WAVCIS,ioos:station:WAVCIS:CSI16:1,2010-05-04T11:00:00Z,29.4012,-89.0355,9.39,11111222 
WAVCIS,ioos:station:WAVCIS:CSI16:1,2010-05-04T12:00:00Z,29.4012,-89.0355,9.463,11111222 
WAVCIS,ioos:station:WAVCIS:CSI16:1,2010-05-04T13:00:00Z,29.4012,-89.0355,9.485,11111222 
WAVCIS,ioos:station:WAVCIS:CSI16:1,2010-05-04T14:00:00Z,29.4012,-89.0355,9.517,11111222 
WAVCIS,ioos:station:WAVCIS:CSI16:1,2010-05-04T15:00:00Z,29.4012,-89.0355,9.574,11111222 
WAVCIS,ioos:station:WAVCIS:CSI16:1,2010-05-04T16:00:00Z,29.4012,-89.0355,9.584,11111222 
WAVCIS,ioos:station:WAVCIS:CSI16:1,2010-05-04T17:00:00Z,29.4012,-89.0355,9.588,11111222 
WAVCIS,ioos:station:WAVCIS:CSI16:1,2010-05-04T18:00:00Z,29.4012,-89.0355,9.589,11111222 
WAVCIS,ioos:station:WAVCIS:CSI16:1,2010-05-04T19:00:00Z,29.4012,-89.0355,9.562,11111222 
WAVCIS,ioos:station:WAVCIS:CSI16:1,2010-05-04T20:00:00Z,29.4012,-89.0355,9.518,11111222 
WAVCIS,ioos:station:WAVCIS:CSI16:1,2010-05-04T21:00:00Z,29.4012,-89.0355,9.494,11111222 
WAVCIS,ioos:station:WAVCIS:CSI16:1,2010-05-04T22:00:00Z,29.4012,-89.0355,9.443,11111222 
WAVCIS,ioos:station:WAVCIS:CSI16:1,2010-05-04T23:00:00Z,29.4012,-89.0355,9.391,11111222 
WAVCIS,ioos:station:WAVCIS:CSI16:1,2010-05-05T00:00:00Z,29.4012,-89.0355,9.337,11111222 
WAVCIS,ioos:station:WAVCIS:CSI16:1,2010-05-05T01:00:00Z,29.4012,-89.0355,9.292,11111222 
WAVCIS,ioos:station:WAVCIS:CSI16:1,2010-05-05T02:00:00Z,29.4012,-89.0355,9.251,11111222 
WAVCIS,ioos:station:WAVCIS:CSI16:1,2010-05-05T03:00:00Z,29.4012,-89.0355,9.231,11111222 
WAVCIS,ioos:station:WAVCIS:CSI16:1,2010-05-05T04:00:00Z,29.4012,-89.0355,9.215,11111222 
WAVCIS,ioos:station:WAVCIS:CSI16:1,2010-05-05T05:00:00Z,29.4012,-89.0355,9.208,11111222 
WAVCIS,ioos:station:WAVCIS:CSI16:1,2010-05-05T06:00:00Z,29.4012,-89.0355,9.211,11111222 
WAVCIS,ioos:station:WAVCIS:CSI16:1,2010-05-05T07:00:00Z,29.4012,-89.0355,9.218,11111222 
WAVCIS,ioos:station:WAVCIS:CSI16:1,2010-05-05T08:00:00Z,29.4012,-89.0355,9.238,11111222 
WAVCIS,ioos:station:WAVCIS:CSI16:1,2010-05-05T09:00:00Z,29.4012,-89.0355,9.272,11111222 
WAVCIS,ioos:station:WAVCIS:CSI16:1,2010-05-05T10:00:00Z,29.4012,-89.0355,9.305,11111222 
WAVCIS,ioos:station:WAVCIS:CSI16:1,2010-05-05T11:00:00Z,29.4012,-89.0355,9.363,11111222 
WAVCIS,ioos:station:WAVCIS:CSI16:1,2010-05-05T12:00:00Z,29.4012,-89.0355,9.408,11111222 
WAVCIS,ioos:station:WAVCIS:CSI16:1,2010-05-05T13:00:00Z,29.4012,-89.0355,9.442,11111222 
WAVCIS,ioos:station:WAVCIS:CSI16:1,2010-05-05T14:00:00Z,29.4012,-89.0355,9.469,11111222 
WAVCIS,ioos:station:WAVCIS:CSI16:1,2010-05-05T15:00:00Z,29.4012,-89.0355,9.5,11111222 
WAVCIS,ioos:station:WAVCIS:CSI16:1,2010-05-05T16:00:00Z,29.4012,-89.0355,9.52,11111222 
WAVCIS,ioos:station:WAVCIS:CSI16:1,2010-05-05T17:00:00Z,29.4012,-89.0355,9.535,11111222 
WAVCIS,ioos:station:WAVCIS:CSI16:1,2010-05-05T18:00:00Z,29.4012,-89.0355,9.531,11111222 
WAVCIS,ioos:station:WAVCIS:CSI16:1,2010-05-05T19:00:00Z,29.4012,-89.0355,9.52,11111222 
WAVCIS,ioos:station:WAVCIS:CSI16:1,2010-05-05T20:00:00Z,29.4012,-89.0355,9.493,11111222 
WAVCIS,ioos:station:WAVCIS:CSI16:1,2010-05-05T21:00:00Z,29.4012,-89.0355,9.464,11111222 
WAVCIS,ioos:station:WAVCIS:CSI16:1,2010-05-05T22:00:00Z,29.4012,-89.0355,9.43,11111222 
WAVCIS,ioos:station:WAVCIS:CSI16:1,2010-05-05T23:00:00Z,29.4012,-89.0355,9.388,11111222 
WAVCIS,ioos:station:WAVCIS:CSI16:1,2010-05-06T00:00:00Z,29.4012,-89.0355,9.346,11111222 
WAVCIS,ioos:station:WAVCIS:CSI16:1,2010-05-06T01:00:00Z,29.4012,-89.0355,9.313,11111222 
WAVCIS,ioos:station:WAVCIS:CSI16:1,2010-05-06T02:00:00Z,29.4012,-89.0355,9.277,11111222 
WAVCIS,ioos:station:WAVCIS:CSI16:1,2010-05-06T03:00:00Z,29.4012,-89.0355,9.241,11111222 
WAVCIS,ioos:station:WAVCIS:CSI16:1,2010-05-06T04:00:00Z,29.4012,-89.0355,9.221,11111222 
WAVCIS,ioos:station:WAVCIS:CSI16:1,2010-05-06T05:00:00Z,29.4012,-89.0355,9.206,11111222 
WAVCIS,ioos:station:WAVCIS:CSI16:1,2010-05-06T06:00:00Z,29.4012,-89.0355,9.206,11111222 
WAVCIS,ioos:station:WAVCIS:CSI16:1,2010-05-06T07:00:00Z,29.4012,-89.0355,9.205,11111222 
WAVCIS,ioos:station:WAVCIS:CSI16:1,2010-05-06T08:00:00Z,29.4012,-89.0355,9.22,11111222 
WAVCIS,ioos:station:WAVCIS:CSI16:1,2010-05-06T09:00:00Z,29.4012,-89.0355,9.243,11111222 
WAVCIS,ioos:station:WAVCIS:CSI16:1,2010-05-06T10:00:00Z,29.4012,-89.0355,9.27,11111222 
WAVCIS,ioos:station:WAVCIS:CSI16:1,2010-05-06T11:00:00Z,29.4012,-89.0355,9.301,11111222 
WAVCIS,ioos:station:WAVCIS:CSI16:1,2010-05-06T12:00:00Z,29.4012,-89.0355,9.336,11111222 
WAVCIS,ioos:station:WAVCIS:CSI16:1,2010-05-06T13:00:00Z,29.4012,-89.0355,9.367,11111222 
WAVCIS,ioos:station:WAVCIS:CSI16:1,2010-05-06T14:00:00Z,29.4012,-89.0355,9.389,11111222 
WAVCIS,ioos:station:WAVCIS:CSI16:1,2010-05-06T15:00:00Z,29.4012,-89.0355,9.411,11111222 
WAVCIS,ioos:station:WAVCIS:CSI16:1,2010-05-06T16:00:00Z,29.4012,-89.0355,9.425,11111222 
WAVCIS,ioos:station:WAVCIS:CSI16:1,2010-05-06T17:00:00Z,29.4012,-89.0355,9.428,11111222 
WAVCIS,ioos:station:WAVCIS:CSI16:1,2010-05-06T18:00:00Z,29.4012,-89.0355,9.435,11111222 
WAVCIS,ioos:station:WAVCIS:CSI16:1,2010-05-06T19:00:00Z,29.4012,-89.0355,9.431,11111222 
WAVCIS,ioos:station:WAVCIS:CSI16:1,2010-05-06T20:00:00Z,29.4012,-89.0355,9.411,11111222 
WAVCIS,ioos:station:WAVCIS:CSI16:1,2010-05-06T21:00:00Z,29.4012,-89.0355,9.396,11111222 
WAVCIS,ioos:station:WAVCIS:CSI16:1,2010-05-06T22:00:00Z,29.4012,-89.0355,9.383,11111222 
WAVCIS,ioos:station:WAVCIS:CSI16:1,2010-05-06T23:00:00Z,29.4012,-89.0355,9.362,11111222 
WAVCIS,ioos:station:WAVCIS:CSI16:1,2010-05-07T00:00:00Z,29.4012,-89.0355,9.342,11111222 
WAVCIS,ioos:station:WAVCIS:CSI16:1,2010-05-07T01:00:00Z,29.4012,-89.0355,9.328,11111222 
WAVCIS,ioos:station:WAVCIS:CSI16:1,2010-05-07T02:00:00Z,29.4012,-89.0355,9.309,11111222 
WAVCIS,ioos:station:WAVCIS:CSI16:1,2010-05-07T03:00:00Z,29.4012,-89.0355,9.281,11111222 
WAVCIS,ioos:station:WAVCIS:CSI16:1,2010-05-07T04:00:00Z,29.4012,-89.0355,9.259,11111222 
WAVCIS,ioos:station:WAVCIS:CSI16:1,2010-05-07T05:00:00Z,29.4012,-89.0355,9.241,11111222 
WAVCIS,ioos:station:WAVCIS:CSI16:1,2010-05-07T06:00:00Z,29.4012,-89.0355,9.233,11111222 
WAVCIS,ioos:station:WAVCIS:CSI16:1,2010-05-07T07:00:00Z,29.4012,-89.0355,9.237,11111222 
WAVCIS,ioos:station:WAVCIS:CSI16:1,2010-05-07T08:00:00Z,29.4012,-89.0355,9.238,11111222 
WAVCIS,ioos:station:WAVCIS:CSI16:1,2010-05-07T09:00:00Z,29.4012,-89.0355,9.256,11111222 
WAVCIS,ioos:station:WAVCIS:CSI16:1,2010-05-07T10:00:00Z,29.4012,-89.0355,9.272,11111222 
WAVCIS,ioos:station:WAVCIS:CSI16:1,2010-05-07T11:00:00Z,29.4012,-89.0355,9.299,11111222 
WAVCIS,ioos:station:WAVCIS:CSI16:1,2010-05-07T12:00:00Z,29.4012,-89.0355,9.338,11111222 
WAVCIS,ioos:station:WAVCIS:CSI16:1,2010-05-07T13:00:00Z,29.4012,-89.0355,9.353,11111222 
WAVCIS,ioos:station:WAVCIS:CSI16:1,2010-05-07T14:00:00Z,29.4012,-89.0355,9.374,11111222 
WAVCIS,ioos:station:WAVCIS:CSI16:1,2010-05-07T15:00:00Z,29.4012,-89.0355,9.377,11111222 
WAVCIS,ioos:station:WAVCIS:CSI16:1,2010-05-07T16:00:00Z,29.4012,-89.0355,9.385,11111222 
WAVCIS,ioos:station:WAVCIS:CSI16:1,2010-05-07T17:00:00Z,29.4012,-89.0355,9.371,11111222 
WAVCIS,ioos:station:WAVCIS:CSI16:1,2010-05-07T18:00:00Z,29.4012,-89.0355,9.372,11111222 
WAVCIS,ioos:station:WAVCIS:CSI16:1,2010-05-07T19:00:00Z,29.4012,-89.0355,9.366,11111222 
WAVCIS,ioos:station:WAVCIS:CSI16:1,2010-05-07T20:00:00Z,29.4012,-89.0355,9.358,11111222 
WAVCIS,ioos:station:WAVCIS:CSI16:1,2010-05-07T21:00:00Z,29.4012,-89.0355,9.345,11111222 
WAVCIS,ioos:station:WAVCIS:CSI16:1,2010-05-07T22:00:00Z,29.4012,-89.0355,9.341,11111222 
WAVCIS,ioos:station:WAVCIS:CSI16:1,2010-05-07T23:00:00Z,29.4012,-89.0355,9.327,11111222 
WAVCIS,ioos:station:WAVCIS:CSI16:1,2010-05-08T00:00:00Z,29.4012,-89.0355,9.303,11111222 
WAVCIS,ioos:station:WAVCIS:CSI16:1,2010-05-08T01:00:00Z,29.4012,-89.0355,9.294,11111222 
WAVCIS,ioos:station:WAVCIS:CSI16:1,2010-05-08T02:00:00Z,29.4012,-89.0355,9.287,11111222 
WAVCIS,ioos:station:WAVCIS:CSI16:1,2010-05-08T03:00:00Z,29.4012,-89.0355,9.285,11111222 
WAVCIS,ioos:station:WAVCIS:CSI16:1,2010-05-08T04:00:00Z,29.4012,-89.0355,9.276,11111222 
WAVCIS,ioos:station:WAVCIS:CSI16:1,2010-05-08T05:00:00Z,29.4012,-89.0355,9.27,11111222 
WAVCIS,ioos:station:WAVCIS:CSI16:1,2010-05-08T06:00:00Z,29.4012,-89.0355,9.264,11111222 
WAVCIS,ioos:station:WAVCIS:CSI16:1,2010-05-08T07:00:00Z,29.4012,-89.0355,9.258,11111222 
WAVCIS,ioos:station:WAVCIS:CSI16:1,2010-05-08T08:00:00Z,29.4012,-89.0355,9.287,11111222 
WAVCIS,ioos:station:WAVCIS:CSI16:1,2010-05-08T09:00:00Z,29.4012,-89.0355,9.281,11111222 
WAVCIS,ioos:station:WAVCIS:CSI16:1,2010-05-08T10:00:00Z,29.4012,-89.0355,9.294,11111222 
WAVCIS,ioos:station:WAVCIS:CSI16:1,2010-05-08T11:00:00Z,29.4012,-89.0355,9.321,11111222 
WAVCIS,ioos:station:WAVCIS:CSI16:1,2010-05-08T12:00:00Z,29.4012,-89.0355,9.327,11111222 
WAVCIS,ioos:station:WAVCIS:CSI16:1,2010-05-08T13:00:00Z,29.4012,-89.0355,9.352,11111222 
WAVCIS,ioos:station:WAVCIS:CSI16:1,2010-05-08T14:00:00Z,29.4012,-89.0355,9.361,11111222 
WAVCIS,ioos:station:WAVCIS:CSI16:1,2010-05-08T15:00:00Z,29.4012,-89.0355,9.354,11111222 
WAVCIS,ioos:station:WAVCIS:CSI16:1,2010-05-08T16:00:00Z,29.4012,-89.0355,9.328,11111222 
WAVCIS,ioos:station:WAVCIS:CSI16:1,2010-05-08T17:00:00Z,29.4012,-89.0355,9.318,11111222 
WAVCIS,ioos:station:WAVCIS:CSI16:1,2010-05-08T18:00:00Z,29.4012,-89.0355,9.302,11111222 
WAVCIS,ioos:station:WAVCIS:CSI16:1,2010-05-08T19:00:00Z,29.4012,-89.0355,9.271,11111222 
WAVCIS,ioos:station:WAVCIS:CSI16:1,2010-05-08T20:00:00Z,29.4012,-89.0355,9.276,11111222 
WAVCIS,ioos:station:WAVCIS:CSI16:1,2010-05-08T21:00:00Z,29.4012,-89.0355,9.283,11111222 
WAVCIS,ioos:station:WAVCIS:CSI16:1,2010-05-08T22:00:00Z,29.4012,-89.0355,9.283,11111222 
WAVCIS,ioos:station:WAVCIS:CSI16:1,2010-05-08T23:00:00Z,29.4012,-89.0355,9.262,11111222 
WAVCIS,ioos:station:WAVCIS:CSI16:1,2010-05-09T00:00:00Z,29.4012,-89.0355,9.272,11111222 
WAVCIS,ioos:station:WAVCIS:CSI16:1,2010-05-09T01:00:00Z,29.4012,-89.0355,9.292,11111222 
WAVCIS,ioos:station:WAVCIS:CSI16:1,2010-05-09T02:00:00Z,29.4012,-89.0355,9.303,11111222 
WAVCIS,ioos:station:WAVCIS:CSI16:1,2010-05-09T03:00:00Z,29.4012,-89.0355,9.318,11111222 
WAVCIS,ioos:station:WAVCIS:CSI16:1,2010-05-09T04:00:00Z,29.4012,-89.0355,9.321,11111222 
WAVCIS,ioos:station:WAVCIS:CSI16:1,2010-05-09T05:00:00Z,29.4012,-89.0355,9.331,11111222 
WAVCIS,ioos:station:WAVCIS:CSI16:1,2010-05-09T06:00:00Z,29.4012,-89.0355,9.355,11111222 
WAVCIS,ioos:station:WAVCIS:CSI16:1,2010-05-09T07:00:00Z,29.4012,-89.0355,9.363,11111222 
WAVCIS,ioos:station:WAVCIS:CSI16:1,2010-05-09T08:00:00Z,29.4012,-89.0355,9.367,11111222 
WAVCIS,ioos:station:WAVCIS:CSI16:1,2010-05-09T09:00:00Z,29.4012,-89.0355,9.414,11111222 
WAVCIS,ioos:station:WAVCIS:CSI16:1,2010-05-09T10:00:00Z,29.4012,-89.0355,9.441,11111222 
WAVCIS,ioos:station:WAVCIS:CSI16:1,2010-05-09T11:00:00Z,29.4012,-89.0355,9.475,11111222 
WAVCIS,ioos:station:WAVCIS:CSI16:1,2010-05-09T12:00:00Z,29.4012,-89.0355,9.503,11111222 
WAVCIS,ioos:station:WAVCIS:CSI16:1,2010-05-09T13:00:00Z,29.4012,-89.0355,9.518,11111222 
WAVCIS,ioos:station:WAVCIS:CSI16:1,2010-05-09T14:00:00Z,29.4012,-89.0355,9.526,11111222 
WAVCIS,ioos:station:WAVCIS:CSI16:1,2010-05-09T15:00:00Z,29.4012,-89.0355,9.51,11111222 
WAVCIS,ioos:station:WAVCIS:CSI16:1,2010-05-09T16:00:00Z,29.4012,-89.0355,9.487,11111222 
WAVCIS,ioos:station:WAVCIS:CSI16:1,2010-05-09T17:00:00Z,29.4012,-89.0355,9.45,11111222 
WAVCIS,ioos:station:WAVCIS:CSI16:1,2010-05-09T18:00:00Z,29.4012,-89.0355,9.412,11111222 
WAVCIS,ioos:station:WAVCIS:CSI16:1,2010-05-09T19:00:00Z,29.4012,-89.0355,9.402,11111222 
WAVCIS,ioos:station:WAVCIS:CSI16:1,2010-05-09T20:00:00Z,29.4012,-89.0355,9.362,11111222 
WAVCIS,ioos:station:WAVCIS:CSI16:1,2010-05-09T21:00:00Z,29.4012,-89.0355,9.349,11111222 
WAVCIS,ioos:station:WAVCIS:CSI16:1,2010-05-09T22:00:00Z,29.4012,-89.0355,9.337,11111222 
WAVCIS,ioos:station:WAVCIS:CSI16:1,2010-05-09T23:00:00Z,29.4012,-89.0355,9.33,11111222 
WAVCIS,ioos:station:WAVCIS:CSI16:1,2010-05-10T00:00:00Z,29.4012,-89.0355,9.335,11111222 
WAVCIS,ioos:station:WAVCIS:CSI16:1,2010-05-10T01:00:00Z,29.4012,-89.0355,9.336,11111222 
WAVCIS,ioos:station:WAVCIS:CSI16:1,2010-05-10T02:00:00Z,29.4012,-89.0355,9.354,11111222 
WAVCIS,ioos:station:WAVCIS:CSI16:1,2010-05-10T03:00:00Z,29.4012,-89.0355,9.358,11111222 
WAVCIS,ioos:station:WAVCIS:CSI16:1,2010-05-10T04:00:00Z,29.4012,-89.0355,9.35,11111222 
WAVCIS,ioos:station:WAVCIS:CSI16:1,2010-05-10T05:00:00Z,29.4012,-89.0355,9.358,11111222 
WAVCIS,ioos:station:WAVCIS:CSI16:1,2010-05-10T06:00:00Z,29.4012,-89.0355,9.358,11111222 
WAVCIS,ioos:station:WAVCIS:CSI16:1,2010-05-10T07:00:00Z,29.4012,-89.0355,9.359,11111222 
WAVCIS,ioos:station:WAVCIS:CSI16:1,2010-05-10T08:00:00Z,29.4012,-89.0355,9.386,11111222 
WAVCIS,ioos:station:WAVCIS:CSI16:1,2010-05-10T09:00:00Z,29.4012,-89.0355,9.403,11111222 
WAVCIS,ioos:station:WAVCIS:CSI16:1,2010-05-10T10:00:00Z,29.4012,-89.0355,9.433,11111222 
WAVCIS,ioos:station:WAVCIS:CSI16:1,2010-05-10T11:00:00Z,29.4012,-89.0355,9.456,11111222 
WAVCIS,ioos:station:WAVCIS:CSI16:1,2010-05-10T12:00:00Z,29.4012,-89.0355,9.47,11111222 
WAVCIS,ioos:station:WAVCIS:CSI16:1,2010-05-10T13:00:00Z,29.4012,-89.0355,9.473,11111222 
WAVCIS,ioos:station:WAVCIS:CSI16:1,2010-05-10T14:00:00Z,29.4012,-89.0355,9.499,11111222 
WAVCIS,ioos:station:WAVCIS:CSI16:1,2010-05-10T15:00:00Z,29.4012,-89.0355,9.477,11111222 
WAVCIS,ioos:station:WAVCIS:CSI16:1,2010-05-10T16:00:00Z,29.4012,-89.0355,9.438,11111222 
WAVCIS,ioos:station:WAVCIS:CSI16:1,2010-05-10T17:00:00Z,29.4012,-89.0355,9.384,11111222 
WAVCIS,ioos:station:WAVCIS:CSI16:1,2010-05-10T18:00:00Z,29.4012,-89.0355,9.333,11111222 
WAVCIS,ioos:station:WAVCIS:CSI16:1,2010-05-10T19:00:00Z,29.4012,-89.0355,9.296,11111222 
WAVCIS,ioos:station:WAVCIS:CSI16:1,2010-05-10T20:00:00Z,29.4012,-89.0355,9.265,11111222 
WAVCIS,ioos:station:WAVCIS:CSI16:1,2010-05-10T21:00:00Z,29.4012,-89.0355,9.248,11111222 
WAVCIS,ioos:station:WAVCIS:CSI16:1,2010-05-10T22:00:00Z,29.4012,-89.0355,9.234,11111222 
WAVCIS,ioos:station:WAVCIS:CSI16:1,2010-05-10T23:00:00Z,29.4012,-89.0355,9.237,11111222 
WAVCIS,ioos:station:WAVCIS:CSI16:1,2010-05-11T00:00:00Z,29.4012,-89.0355,9.253,11111222 
WAVCIS,ioos:station:WAVCIS:CSI16:1,2010-05-11T01:00:00Z,29.4012,-89.0355,9.279,11111222 
WAVCIS,ioos:station:WAVCIS:CSI16:1,2010-05-11T02:00:00Z,29.4012,-89.0355,9.315,11111222 
WAVCIS,ioos:station:WAVCIS:CSI16:1,2010-05-11T03:00:00Z,29.4012,-89.0355,9.358,11111222 
WAVCIS,ioos:station:WAVCIS:CSI16:1,2010-05-11T04:00:00Z,29.4012,-89.0355,9.379,11111222 
WAVCIS,ioos:station:WAVCIS:CSI16:1,2010-05-11T05:00:00Z,29.4012,-89.0355,9.419,11111222 
WAVCIS,ioos:station:WAVCIS:CSI16:1,2010-05-11T06:00:00Z,29.4012,-89.0355,9.449,11111222 
WAVCIS,ioos:station:WAVCIS:CSI16:1,2010-05-11T07:00:00Z,29.4012,-89.0355,9.482,11111222 
WAVCIS,ioos:station:WAVCIS:CSI16:1,2010-05-11T08:00:00Z,29.4012,-89.0355,9.503,11111222 
WAVCIS,ioos:station:WAVCIS:CSI16:1,2010-05-11T09:00:00Z,29.4012,-89.0355,9.523,11111222 
WAVCIS,ioos:station:WAVCIS:CSI16:1,2010-05-11T10:00:00Z,29.4012,-89.0355,9.554,11111222 
WAVCIS,ioos:station:WAVCIS:CSI16:1,2010-05-11T11:00:00Z,29.4012,-89.0355,9.565,11111222 
WAVCIS,ioos:station:WAVCIS:CSI16:1,2010-05-11T12:00:00Z,29.4012,-89.0355,9.582,11111222 
WAVCIS,ioos:station:WAVCIS:CSI16:1,2010-05-11T13:00:00Z,29.4012,-89.0355,9.602,11111222 
WAVCIS,ioos:station:WAVCIS:CSI16:1,2010-05-11T14:00:00Z,29.4012,-89.0355,9.578,11111222 
WAVCIS,ioos:station:WAVCIS:CSI16:1,2010-05-11T15:00:00Z,29.4012,-89.0355,9.554,11111222 
WAVCIS,ioos:station:WAVCIS:CSI16:1,2010-05-11T16:00:00Z,29.4012,-89.0355,9.5,11111222 
WAVCIS,ioos:station:WAVCIS:CSI16:1,2010-05-11T17:00:00Z,29.4012,-89.0355,9.45,11111222 
WAVCIS,ioos:station:WAVCIS:CSI16:1,2010-05-11T18:00:00Z,29.4012,-89.0355,9.383,11111222 
WAVCIS,ioos:station:WAVCIS:CSI16:1,2010-05-11T19:00:00Z,29.4012,-89.0355,9.322,11111222 
WAVCIS,ioos:station:WAVCIS:CSI16:1,2010-05-11T20:00:00Z,29.4012,-89.0355,9.262,11111222 
WAVCIS,ioos:station:WAVCIS:CSI16:1,2010-05-11T21:00:00Z,29.4012,-89.0355,9.23,11111222 
WAVCIS,ioos:station:WAVCIS:CSI16:1,2010-05-11T22:00:00Z,29.4012,-89.0355,9.216,11111222 
WAVCIS,ioos:station:WAVCIS:CSI16:1,2010-05-11T23:00:00Z,29.4012,-89.0355,9.218,11111222 
WAVCIS,ioos:station:WAVCIS:CSI16:1,2010-05-12T00:00:00Z,29.4012,-89.0355,9.24,11111222 
WAVCIS,ioos:station:WAVCIS:CSI16:1,2010-05-12T01:00:00Z,29.4012,-89.0355,9.265,11111222 
WAVCIS,ioos:station:WAVCIS:CSI16:1,2010-05-12T02:00:00Z,29.4012,-89.0355,9.305,11111222 
WAVCIS,ioos:station:WAVCIS:CSI16:1,2010-05-12T03:00:00Z,29.4012,-89.0355,9.355,11111222 
WAVCIS,ioos:station:WAVCIS:CSI16:1,2010-05-12T04:00:00Z,29.4012,-89.0355,9.389,11111222 